logo
App data

Wanda - A Beautiful Apocalypse

Wanda is a minimalist story-rich puzzle about two robotic lifeforms finding happiness, companionship and hope in a lonely post-apocalyptic world.
Store | Hub | SteamDB | Site
Developer: Kodots Games Publisher: KISS ltd
Genre: Casual, Indie, RPG
Languages: English
Tags: Casual (35), Indie (24), Puzzle (18), RPG (18), RPGMaker (16), Great Soundtrack (16), Atmospheric (16), Story Rich (16), Visual Novel (13), Adventure (12)
Category: Single-player, Steam Achievements, Steam Trading Cards, Partial Controller Support
Release date: Jun 3, 2016
Price: $1.99
Score rank: 31% Userscore: 69% Old userscore: 59%
Owners: 100,000 .. 200,000
Followers: 750
Peak concurrent players yesterday: 3
Playtime in the last 2 weeks: 03:47 (average) 03:47 (median)
Playtime total: 03:17 (average) 03:19 (median)

Steam Spy is still in beta, so expect major bugs.

Owners data:

Access restricted.

This feature is only available to users with special access rights. Sorry.

If you want to proceed, you need to register or log in first and then back Steam Spy on Patreon. Look for Indie or Pro pledge.

Don't forget to use the same email as on Steam Spy!

Audience in 2 weeks:

Access restricted.

This feature is only available to users with special access rights. Sorry.

If you want to proceed, you need to register or log in first and then back Steam Spy on Patreon. Look for Indie or Pro pledge.

Don't forget to use the same email as on Steam Spy!

Peak daily concurrent players:

CCU data courtesy of SteamDB. Used with permission.

Hourly concurrent players:

YouTube:

The views data is based on top 50 videos uploaded last week. Actual number of views might be more than the number shown.

The displayed number of videos uploaded yesterday is limited to 50, so if there were more videos uploaded, the number will still show 50.

If the game has commonly used word as its name (like "FEAR" or "Volume") its number of Youtube views might be wrong.

Games similar to this one:

# Game Release date
Price
Score rank
(Userscore / Metascore)
Owners
Players
Playtime (Median)
1 Night Blights Apr 15, 2016 $4.99100% (100%)0 .. 20,0000%00:00 (00:00)
2 Carrie's Order Up! Sep 13, 2016 $2.9999% (98%)0 .. 20,0000%00:00 (00:00)
3 Luxor Evolved Mar 1, 2012 $9.9997% (97%)50,000 .. 100,0000%00:00 (00:00)
4 Hustle Cat Mar 16, 2016 $19.9995% (96%)20,000 .. 50,0000%00:00 (00:00)
5 A Good Snowman Is Hard To Build Feb 25, 2015 $9.9993% (95%)20,000 .. 50,0000%00:00 (00:00)
6 Beat Da Beat Mar 10, 2016 $1.9993% (95%)0 .. 20,0000%00:00 (00:00)
7 Chip's Challenge 2 May 28, 2015 $4.9990% (94%)20,000 .. 50,0000%00:00 (00:00)
8 [the Sequence] Mar 30, 2016 $1.9987% (93%)0 .. 20,0000%00:00 (00:00)
9 12 Labours of Hercules Mar 23, 2015 $1.9487% (93%)100,000 .. 200,0000.5%00:01 (00:00)
10 Girls Like Robots Feb 14, 2014 $6.9987% (93%)100,000 .. 200,0000%00:00 (00:00)
11 Tennis in the Face Nov 18, 2015 $4.9987% (93%)0 .. 20,0002.86%04:08 (01:22)
12 Swapperoo Dec 18, 2015 $4.99N/A (N/A)0 .. 20,0000%00:00 (00:00)
13 SquareCells Dec 7, 2015 $2.9984% (92%)20,000 .. 50,0000%00:00 (00:00)
14 Grapple Mar 9, 2015 $6.9984% (92%)20,000 .. 50,0002.47%00:39 (00:25)
15 Tribloos 2 Jan 30, 2014 $4.9980% (91%)100,000 .. 200,0000.72%02:04 (02:03)
16 Griptape Backbone May 5, 2017 Free80% (91%)0 .. 20,0003.57%00:05 (00:01)
17 Earthtongue Apr 27, 2015 $4.9980% (91%)0 .. 20,0005%00:34 (00:11)
18 The Jackbox Party Pack Nov 26, 2014 $24.9980% (91%)200,000 .. 500,0005.06%01:26 (01:54)
19 Think To Die 3 Mar 27, 2017 $4.99N/A (N/A)0 .. 20,0000%00:00 (00:00)
20 Frog Climbers Oct 6, 2016 $6.9977% (90%)20,000 .. 50,0000%00:00 (00:00)
21 Vampires: Guide Them to Safety! Oct 22, 2014 $4.99N/A (N/A)0 .. 20,0000%00:00 (00:00)
22 Koala Kids Jun 22, 2015 $1.9977% (90%)20,000 .. 50,0000%00:00 (00:00)
23 Without Within 2 Nov 9, 2015 $2.9974% (89%)0 .. 20,0000%00:00 (00:00)
24 On Rusty Trails Jun 13, 2016 $12.9974% (89%/77%)50,000 .. 100,0000%00:00 (00:00)
25 Forgotten, Not Lost - A Kinetic Novel Apr 1, 2016 $1.9974% (89%)50,000 .. 100,00019.23%04:27 (04:32)
26 This Starry Midnight We Make Jun 1, 2015 $9.99N/A (N/A)0 .. 20,0000%00:00 (00:00)
27 Clock Simulator Jul 20, 2016 $0.9974% (89%)20,000 .. 50,0000%00:00 (00:00)
28 12 Labours of Hercules IV: Mother Nature (Platinum Edition) Dec 25, 2015 $2.9974% (89%)20,000 .. 50,0000%00:00 (00:00)
29 The Reject Demon: Toko Chapter 0 — Prelude May 8, 2015 $4.9974% (89%)0 .. 20,0000%00:00 (00:00)
30 12 Labours of Hercules V: Kids of Hellas (Platinum Edition) Jun 17, 2016 $2.9974% (89%)20,000 .. 50,0000%00:00 (00:00)
31 Bob Was Hungry Aug 19, 2015 $9.9971% (88%)20,000 .. 50,0001.18%02:04 (00:41)
32 Recursion Deluxe Feb 12, 2016 $4.9971% (88%)0 .. 20,0000%00:00 (00:00)
33 In Between Aug 21, 2015 $11.9971% (88%/68%)50,000 .. 100,0000%00:00 (00:00)
34 Cursed Sight Aug 3, 2015 $2.9968% (87%)0 .. 20,0000%00:00 (00:00)
35 Asphyxia Aug 4, 2015 $5.9968% (87%)20,000 .. 50,0000%00:00 (00:00)
36 Thrillville: Off the Rails Jul 8, 2009 $9.9968% (87%/70%)20,000 .. 50,0000%00:00 (00:00)
37 Loot Hound Nov 17, 2015 $4.9968% (87%)0 .. 20,0000%00:00 (00:00)
38 Sophie's Curse Mar 16, 2016 $4.9966% (86%)50,000 .. 100,0000.65%04:57 (01:39)
39 Army of Pixels Oct 29, 2015 $4.99N/A (N/A)0 .. 20,0005.26%04:03 (01:21)
40 Anode Oct 5, 2015 $3.99N/A (N/A)0 .. 20,0000%00:00 (00:00)
41 Oozi: Earth Adventure Dec 5, 2013 $4.9966% (86%/66%)50,000 .. 100,0000.98%02:00 (00:53)
42 Darkarta: A Broken Heart's Quest Collector's Edition Mar 8, 2017 $5.9966% (86%)20,000 .. 50,0000%00:00 (00:00)
43 BAD END Nov 25, 2015 $1.9963% (85%)0 .. 20,0000%00:00 (00:00)
44 Psycho Starship Rampage Sep 28, 2015 $9.9963% (85%)0 .. 20,0000%00:00 (00:00)
45 Magma Tsunami Jun 1, 2016 $0.9963% (85%)100,000 .. 200,0000%00:00 (00:00)
46 Sentinel 4: Dark Star Aug 13, 2015 $6.99N/A (N/A)0 .. 20,0000%00:00 (00:00)
47 Dead Man's Draw Feb 6, 2014 $6.9963% (85%)20,000 .. 50,0000%00:00 (00:00)
48 Alpha Runner Sep 2, 2015 $0.4963% (85%)50,000 .. 100,0000.8%164:48 (109:29)
49 RePete Mar 9, 2016 $1.99N/A (N/A)0 .. 20,0000%00:00 (00:00)
50 Governor of Poker 2 - Premium Edition Oct 11, 2010 $14.9960% (84%)20,000 .. 50,0000%00:00 (00:00)
51 Job the Leprechaun Jul 31, 2015 $0.9958% (83%)20,000 .. 50,0000%00:00 (00:00)
52 Cyto Jul 10, 2014 $3.9958% (83%)20,000 .. 50,0000%00:00 (00:00)
53 Gridworld Dec 24, 2015 $0.9958% (83%)0 .. 20,0005.56%03:57 (01:19)
54 Collisions Jul 28, 2015 $3.9958% (83%)20,000 .. 50,0000%00:00 (00:00)
55 Steam and Metal Feb 9, 2015 $4.99N/A (N/A)0 .. 20,0002.5%00:10 (00:03)
56 Cute Things Dying Violently Sep 2, 2015 $2.99N/A (N/A)0 .. 20,0000%00:00 (00:00)
57 Space Drifters 2D Mar 28, 2016 $0.99N/A (N/A)20,000 .. 50,0000%00:00 (00:00)
58 Stay Alight Mar 2, 2015 $3.9953% (81%)20,000 .. 50,0000%00:00 (00:00)
59 Egg Returns Home May 5, 2015 $1.9951% (80%)20,000 .. 50,0000%00:00 (00:00)
60 Archimedes Oct 6, 2016 $2.9951% (80%)100,000 .. 200,0000%00:00 (00:00)
61 Star Sky - ブルームーン Oct 23, 2015 $3.9949% (79%)0 .. 20,0000%00:00 (00:00)
62 Optika Aug 26, 2016 $4.9949% (79%)20,000 .. 50,0000%00:00 (00:00)
63 Air Missions: HIND Mar 21, 2016 $16.9949% (79%)0 .. 20,0008.33%00:20 (00:06)
64 The Last NightMary - A Lenda do Cabeça de Cuia Nov 2, 2015 $0.4949% (79%)50,000 .. 100,0000.68%09:06 (03:02)
65 Dungeon Painter Studio Feb 26, 2017 $14.9949% (79%)20,000 .. 50,00015.38%03:15 (04:02)
66 Fate Tectonics Sep 9, 2015 $9.9949% (79%)0 .. 20,0002.86%01:58 (01:07)
67 GamersGoMakers Aug 8, 2014 $9.9949% (79%)0 .. 20,0000%00:00 (00:00)
68 hackmud Sep 22, 2016 $19.9947% (78%)20,000 .. 50,0000%00:00 (00:00)
69 Terraform May 8, 2015 $2.99N/A (N/A)0 .. 20,0000%00:00 (00:00)
70 Particulars Nov 19, 2014 $5.9947% (78%/74%)20,000 .. 50,0000%00:00 (00:00)
71 Farm for your Life Jun 16, 2014 $9.9947% (78%)20,000 .. 50,0000%00:00 (00:00)
72 Beeftacular Aug 26, 2016 $2.9945% (77%)0 .. 20,0000%00:00 (00:00)
73 The Survey Oct 27, 2016 $4.9945% (77%)0 .. 20,0000%00:00 (00:00)
74 SinaRun Oct 26, 2015 $2.9945% (77%)0 .. 20,0000%00:00 (00:00)
75 Neon Prism Nov 18, 2016 $4.9945% (77%)50,000 .. 100,0000%00:00 (00:00)
76 Paranormal State: Poison Spring Apr 9, 2014 $9.9945% (77%)20,000 .. 50,0000%00:00 (00:00)
77 Rescue Team 5 Nov 18, 2015 $3.9943% (76%)20,000 .. 50,0000%00:00 (00:00)
78 Pixel Puzzles 2: Birds Feb 20, 2015 $9.9943% (76%)200,000 .. 500,0000.21%05:14 (01:44)
79 Western FPS Mar 13, 2017 $0.9941% (75%)100,000 .. 200,0000.42%04:30 (02:59)
80 The Deletion Jul 30, 2015 $1.9941% (75%)20,000 .. 50,0000%00:00 (00:00)
81 Kombine Oct 14, 2016 $0.9941% (75%)0 .. 20,0000%00:00 (00:00)
82 Where are my Internets? Dec 16, 2016 $2.9941% (75%)0 .. 20,0000%00:00 (00:00)
83 Turbo Pug 3D Sep 20, 2016 $1.9937% (73%)200,000 .. 500,0002.76%04:06 (04:12)
84 GO AWAY, THERE'S KUMIS OVER THERE! Oct 28, 2016 $0.9937% (73%)50,000 .. 100,0000%00:00 (00:00)
85 Idle Evolution Apr 3, 2017 $4.9936% (72%)0 .. 20,00010%03:44 (01:14)
86 ConflictCraft Dec 8, 2016 $2.99N/A (N/A)20,000 .. 50,0000.76%05:04 (01:41)
87 Lift It Jan 20, 2017 $4.9936% (72%)20,000 .. 50,0000%00:00 (00:00)
88 Laserlife Sep 22, 2015 $14.9934% (71%)0 .. 20,0000%00:00 (00:00)
89 Caravanserail Mar 10, 2016 $2.99N/A (N/A)0 .. 20,0000%00:00 (00:00)
90 Axel & Pixel Oct 6, 2010 $4.99N/A (N/A)20,000 .. 50,0000%00:00 (00:00)
91 Totally Unbalanced Jul 29, 2016 $2.9934% (71%)0 .. 20,0000%00:00 (00:00)
92 Zipple World Jan 19, 2016 $4.99N/A (N/A)0 .. 20,0000%00:00 (00:00)
93 Pester Aug 21, 2015 $0.9929% (68%)100,000 .. 200,0000%00:00 (00:00)
94 Love in the Glen Jun 9, 2016 $5.99N/A (N/A)20,000 .. 50,0001.27%07:07 (02:22)
95 Sinister City Oct 20, 2014 $0.9929% (68%)100,000 .. 200,0000%00:00 (00:00)
96 1931: Scheherazade at the Library of Pergamum Mar 26, 2015 $14.9928% (67%)0 .. 20,0000%00:00 (00:00)
97 Mind Games Mar 4, 2016 $2.9928% (67%)0 .. 20,0000%00:00 (00:00)
98 Marble Duel Nov 12, 2015 $4.9926% (66%)50,000 .. 100,0000%00:00 (00:00)
99 Fergus The Fly Feb 1, 2017 $0.9926% (66%)200,000 .. 500,0000.58%05:31 (05:44)
100 Alter World May 29, 2015 $1.9926% (66%)100,000 .. 200,0000%00:00 (00:00)
101 Broken Dreams Feb 19, 2016 $1.9926% (66%)200,000 .. 500,0001%03:43 (03:54)
102 One Last Chance Apr 7, 2016 $3.9925% (65%)20,000 .. 50,0001.32%07:06 (02:22)
103 XCavalypse Jun 6, 2016 $5.99N/A (N/A)0 .. 20,0000%00:00 (00:00)
104 Highborn Feb 19, 2013 $1.99N/A (N/A)0 .. 20,0000%00:00 (00:00)
105 Herding Dog Jan 15, 2016 $2.99N/A (N/A)0 .. 20,0000%00:00 (00:00)
106 Winexy Jan 13, 2017 $0.9922% (62%)20,000 .. 50,0000%00:00 (00:00)
107 Power of Love Jul 21, 2015 $0.4922% (62%)20,000 .. 50,0001.26%01:11 (00:47)
108 Racecraft Mar 4, 2016 Free21% (61%)0 .. 20,0005.88%00:19 (00:15)
109 Goodnight Butcher Dec 18, 2015 $1.99N/A (N/A)20,000 .. 50,0000%00:00 (00:00)
110 FBI MANIA Jan 31, 2017 $0.4919% (60%)100,000 .. 200,0000.3%02:07 (00:42)
111 Won't You Be My Laser? Sep 2, 2016 $0.99N/A (N/A)0 .. 20,0000%00:00 (00:00)
112 Football Blitz Jan 4, 2017 $3.99N/A (N/A)0 .. 20,0000%00:00 (00:00)
113 Star Chronicles: Delta Quadrant Jul 7, 2015 $0.9918% (59%)200,000 .. 500,0000.09%03:50 (01:16)
114 Dance Magic Feb 15, 2016 $9.99N/A (N/A)0 .. 20,0000%00:00 (00:00)
115 Wildlife Park 2 - Dino World Jul 17, 2014 $3.9917% (58%)20,000 .. 50,0000%00:00 (00:00)
116 Way of Gold and Steel Aug 17, 2015 $8.9916% (57%)0 .. 20,0000%00:00 (00:00)
117 Bunny & Piggy Dec 1, 2016 $0.9915% (56%)50,000 .. 100,0000%00:00 (00:00)
118 Bloop Reloaded Feb 6, 2015 $9.9915% (56%)100,000 .. 200,0000%00:00 (00:00)
119 King's Guard TD Jun 8, 2016 $2.9914% (54%)100,000 .. 200,0000.28%03:11 (01:03)
120 Drizzlepath Mar 12, 2015 $2.9914% (54%)0 .. 20,0000%00:00 (00:00)
121 Color Syndrome Jun 20, 2016 $0.9914% (54%)20,000 .. 50,0000%00:00 (00:00)
122 Backgammon Blitz Nov 12, 2015 $3.9914% (54%)0 .. 20,0000%00:00 (00:00)
123 Quantum Rush Champions Dec 4, 2014 $9.9913% (53%)20,000 .. 50,0000%00:00 (00:00)
124 Sky to Fly: Soulless Leviathan Jul 22, 2016 $3.9913% (53%)0 .. 20,0000%00:00 (00:00)
125 Reptilian Rebellion Aug 8, 2016 $0.9913% (53%)20,000 .. 50,0000%00:00 (00:00)
126 Rage Runner May 16, 2014 $4.99N/A (N/A)0 .. 20,0000%00:00 (00:00)
127 Astro Emporia Feb 2, 2015 $0.9910% (47%)20,000 .. 50,0000%00:00 (00:00)
128 Autumn Sep 23, 2014 $2.999% (46%)50,000 .. 100,0000%00:00 (00:00)
129 Ninja Stealth 2 Jan 30, 2017 $0.999% (46%)20,000 .. 50,0000.97%00:01 (00:00)
130 Melting Hearts: Our Love Will Grow 2 Apr 29, 2016 N/AN/A (N/A)20,000 .. 50,0000%00:00 (00:00)
131 iREC Jan 16, 2017 Free8% (43%)20,000 .. 50,0000%00:00 (00:00)
132 European Ship Simulator Nov 4, 2016 $4.996% (38%)20,000 .. 50,0000%00:00 (00:00)
133 Streets of Chaos Jan 28, 2015 $0.995% (36%)100,000 .. 200,0000.18%02:31 (00:50)
134 Hide and Secret Treasure of the Ages Mar 15, 2007 $0.98N/A (N/A)0 .. 20,0000%00:00 (00:00)
135 Space Hotel Jan 4, 2017 $1.99N/A (N/A)0 .. 20,0000%00:00 (00:00)
136 Burst Mar 14, 2016 $1.99N/A (N/A)100,000 .. 200,0000%00:00 (00:00)
137 Labyrinth Simulator Sep 21, 2015 $4.994% (31%)0 .. 20,0000%00:00 (00:00)
138 Industry Transporters Aug 31, 2015 $9.99N/A (N/A)0 .. 20,0000%00:00 (00:00)
139 Robot vs Birds Zombies Jul 23, 2015 $0.994% (31%)0 .. 20,0000%00:00 (00:00)
140 Hyposphere May 5, 2016 $2.993% (27%)200,000 .. 500,0000.51%05:32 (04:12)
141 Cyber Team Manager Jan 18, 2016 $4.992% (20%)0 .. 20,0000%00:00 (00:00)
142 One way to exit Mar 12, 2016 $1.99N/A (N/A)200,000 .. 500,0000.16%00:08 (00:02)

Owners of this game also own:

Access restricted.

This feature is only available to users with special access rights. Sorry.

If you want to proceed, you need to register or log in first and then back Steam Spy on Patreon. Look for Indie or Pro pledge.

Don't forget to use the same email as on Steam Spy!

Playtime distribution:

Access restricted.

This feature is only available to users with special access rights. Sorry.

If you want to proceed, you need to register or log in first and then back Steam Spy on Patreon. Look for Indie or Pro pledge.

Don't forget to use the same email as on Steam Spy!

Playtime (2 weeks):

Access restricted.

This feature is only available to users with special access rights. Sorry.

If you want to proceed, you need to register or log in first and then back Steam Spy on Patreon. Look for Indie or Pro pledge.

Don't forget to use the same email as on Steam Spy!

User reviews:

Login required.

Please register or log in to see this information.